Terug naar catalogus

FENGYUN 1C DEB *

ActiefPO
NORAD 47025·DEBRIS·🇨🇳 China

Gelanceerd May 10, 1999 vanaf Taiyuan Satellite Launch Center

Loading…

Volgende Passages (komende 24 uur)

TLE

VersSource: Space-Track

Epoch: Sep 13, 2026, 10:11 UTC

1 47025U 99025FBB 26256.42476943  .00003437  00000-0  90063-3 0  9991
2 47025  99.0197 126.6468 0035634 259.5522 275.8490 14.49621813667170

Volg FENGYUN 1C DEB * in realtime met AllMySat

Download on the App Store